[Date Prev][Date Next][Thread Prev][Thread Next] - [Date Index][Thread Index][Author Index]

2 Line ISS Keps 7-16



ISS
1 25544U 98067A   04198.45211006  .00010134  00000-0  88130-4 0  2302
2 25544  51.6300 176.4552 0006139  11.3241 129.7431 15.69742419322910
----
Via the sarex mailing list at AMSAT.ORG courtesy of AMSAT-NA.
To unsubscribe, send "unsubscribe sarex" to Majordomo@amsat.org



AMSAT Top AMSAT Home